Location: Spondin
(51.8528°N, 111.6118°W)
Time: 17:17:58
(UTC+00:00)

Vanguard 2 Rocket - Pass Details

Date: 27 May 2022
Orbit: 553 x 3323 km, 32.9° (Epoch: 02 July)

Event Time Altitude Azimuth Distance (km) Brightness Sun altitude
Rises 21:40:34 0° 240° (WSW) 7,296 12.2 49.7°
Reaches altitude 10° 21:46:18 10° 234° (SW) 6,164 12.1 49.0°
Maximum altitude 22:01:57 35° 178° (S) 3,673 10.7 46.9°
Drops below altitude 10° 22:12:53 10° 119° (ESE) 4,326 10.2 45.4°
Sets 22:16:05 0° 110° (ESE) 4,969 10.4 45.0°
